カタログに戻る

COSMOS 1359

運用中ナビゲーションLEO
NORAD 13162·PAYLOAD·🇷🇺 Russia

打ち上げ May 6, 1982 から Plesetsk Cosmodrome

Loading…

次のパス (今後24時間)

TLE

最新Source: Space-Track

元期: Sep 14, 2026, 14:02 UTC

1 13162U 82040C   26257.58480003 -.00000008  00000-0  54021-4 0  9992
2 13162  74.0093 112.6883 0031077 193.4831 194.7563 12.52043215 28778

AllMySatでCOSMOS 1359をリアルタイム追跡

Download on the App Store